Location: Grand Lay
(47.3253°N, 0.9468°E)
Time: 14:22:47
(UTC+00:00)

Helios 1A Rocket - Visible Passes

Search period start: 11 April 2026 00:00
Search period end: 21 April 2026 00:00
Orbit: 413 x 421 km, 98.3° (Epoch: 11 April)

Date Brightness Start Highest point End Pass type
(mag) Time Alt. Az. Time Alt. Az. Time Alt. Az.
11 Apr 3.1 20:08:41 10° N 20:11:52 53° WNW 20:14:59 10° SSW visible
12 Apr 2.9 19:23:45 10° NNE 19:26:45 34° E 19:29:43 10° SSE visible
12 Apr 5.5 20:56:31 10° NNW 20:58:29 15° WNW 21:00:27 10° WSW visible
13 Apr 3.1 20:10:28 10° N 20:13:37 52° WNW 20:16:45 10° SSW visible
14 Apr 2.9 19:25:25 10° NNE 19:28:25 34° E 19:31:23 10° SSE visible
14 Apr 5.5 20:58:11 10° NNW 21:00:09 15° WNW 21:02:05 10° W visible
15 Apr 3.1 20:12:01 10° N 20:15:10 52° WNW 20:18:18 10° SSW visible
16 Apr 2.9 19:26:52 10° NNE 19:29:51 35° E 19:32:49 10° SSE visible
16 Apr 5.5 20:59:38 10° NNW 21:01:34 15° WNW 21:03:30 10° W visible
17 Apr 3.1 20:13:20 10° N 20:16:30 52° WNW 20:19:37 10° SSW visible
18 Apr 2.9 19:28:05 10° NNE 19:31:04 34° E 19:34:02 10° SSE visible
18 Apr 5.5 21:00:51 10° NNW 21:02:47 15° WNW 21:04:42 10° W visible
19 Apr 3.1 20:14:27 10° N 20:17:36 52° WNW 20:20:43 10° SSW visible
20 Apr 2.9 19:29:05 10° NNE 19:32:04 34° E 19:35:00 10° SSE visible
20 Apr 5.5 21:01:49 10° NNW 21:03:46 15° WNW 21:05:42 10° W visible
